Satellite-Ground Cal/Val Site Overpasses Predictions

Prediction of Satellite NPP Overpassing Cal/Val Site: Antarctic Dome C

Ground Cal/Val Site Location: Latitude: -75.10, Longitude: 123.35; Satellite-Ground Site NADIR distance within 100 km.

Table of predicted overpasses for the next 14.0 days since TLE Epoch: 12/5/2024
Interval Starting Time Ending Time Minimum Distance Time Minimum Distance (km)
1 12/05/2024 07:18:55 12/05/2024 07:19:14 12/05/2024 07:19:04 75.34
2 12/07/2024 15:01:15 12/07/2024 15:01:38 12/07/2024 15:01:26 60.06
3 12/08/2024 14:42:26 12/08/2024 14:42:51 12/08/2024 14:42:38 48.99
4 12/09/2024 07:44:09 12/09/2024 07:44:29 12/09/2024 07:44:19 70.65
5 12/10/2024 07:25:18 12/10/2024 07:25:45 12/10/2024 07:25:31 37.03
6 12/12/2024 15:07:51 12/12/2024 15:07:55 12/12/2024 15:07:53 98.71
7 12/13/2024 14:48:51 12/13/2024 14:49:20 12/13/2024 14:49:05 12.44
8 12/15/2024 07:31:43 12/15/2024 07:32:13 12/15/2024 07:31:58 1.18
